This is the latest recevied weather packets stored in our database for station/object KC5TXI. If no packets are shown the sender has not sent any weather packets the latest 10 day(s).
| Time | Temp. | Humidity | Pressure | Rain* | Wind** | Luminosity | Snow |
|---|---|---|---|---|---|---|---|
| 1777920627 | 26.67° C | 58% | 1012.1 hPa | 0 mm | - | 655 W/m² | - |
| 1777919715 | 26.67° C | 59% | 1012.2 hPa | 0 mm | - | 687 W/m² | - |
| 1777916387 | 26.67° C | 56% | 1012.8 hPa | 0 mm | - | 590 W/m² | - |
| 1777916083 | 26.11° C | 58% | 1013 hPa | 0 mm | - | 555 W/m² | - |
| 1777915781 | 25.56° C | 59% | 1012.8 hPa | 0 mm | - | 567 W/m² | - |
| 1777915477 | 26.11° C | 58% | 1013.2 hPa | 0 mm | - | 626 W/m² | - |
| 1777915174 | 25.56° C | 59% | 1013 hPa | 0 mm | - | 668 W/m² | - |
| 1777914568 | 25.56° C | 58% | 1013.4 hPa | 0 mm | - | 718 W/m² | - |
| 1777913658 | 25° C | 59% | 1013.8 hPa | 0 mm | - | 666 W/m² | - |
| 1777912747 | 25° C | 59% | 1014 hPa | 0 mm | - | 641 W/m² | - |
| 1777912443 | 25° C | 59% | 1013.9 hPa | 0 mm | - | 656 W/m² | - |
| 1777911532 | 24.44° C | 60% | 1013.9 hPa | 0 mm | - | 649 W/m² | - |
| 1777911229 | 23.89° C | 62% | 1014.1 hPa | 0 mm | - | 596 W/m² | - |
| 1777910320 | 23.89° C | 61% | 1014.1 hPa | 0 mm | - | 638 W/m² | - |
| 1777910017 | 23.89° C | 61% | 1013.9 hPa | 0 mm | - | 620 W/m² | - |
| 1777909714 | 23.89° C | 62% | 1014.1 hPa | 0 mm | - | 632 W/m² | - |
| 1777909411 | 23.33° C | 63% | 1014.3 hPa | 0 mm | - | 556 W/m² | - |
| 1777909109 | 23.33° C | 64% | 1014.3 hPa | 0 mm | - | 601 W/m² | - |
| 1777908807 | 22.78° C | 64% | 1014.4 hPa | 0 mm | - | 581 W/m² | - |
| 1777908503 | 22.78° C | 64% | 1014.3 hPa | 0 mm | - | 574 W/m² | - |
| 1777908200 | 22.78° C | 66% | 1014.3 hPa | 0 mm | - | 171 W/m² | - |
| 1777907896 | 22.22° C | 65% | 1014.5 hPa | 0 mm | - | 512 W/m² | - |
| 1777907592 | 22.22° C | 66% | 1014.5 hPa | 0 mm | - | 483 W/m² | - |
| 1777907288 | 22.22° C | 67% | 1014.5 hPa | 0 mm | - | 471 W/m² | - |
| 1777906984 | 21.67° C | 67% | 1014.4 hPa | 0 mm | - | 438 W/m² | - |
* Rain latest hour (hover to see other rain measurements)
** Current wind speed in m/s (hover to see current wind gust speed)